Lid_Strength_Index
5 5 5 5 5 5 5 6 7 7 7 7 7 7 7 7 7 6 6 6 5 6 6 6 5 6 6 6 6 5 6 5
6 6 6 7 6 6 6 7 8 8 8 9 9 9 8 7 7 8 7 7 6 7 7 7 6 7 6 5 6 6 6 5
7 7 7 7 7 8 7 7 7 7 8 9 9 9 8 7 7 8 8 7 6 5 6 6 6 6 6 7 7 7 7 6
8 7 8 8 7 8 8 8 8 8 8 7 7 8 7 7 8 8 7 6 6 6 6 6 6 7 7 8 8 8 9 8
7 8 8 8 8 8 8 8 8 7 7 7 7 8 8 8 8 8 7 7 7 6 7 7 7 7 8 8 7 8 9 9
7 7 7 8 8 9 9 7 7 7 6 6 7 8 8 8 8 8 8 7 6 7 7 7 7 7 7 7 7 7 8 8
7 6 6 7 8 9 9 7 7 6 6 6 7 7 7 7 8 8 7 7 6 7 6 7 7 7 7 7 7 7 7 8
8 8 7 7 8 8 7 6 6 7 7 7 7 6 6 6 6 7 8 7 7 7 7 7 6 7 7 7 7 7 7 8
9 9 9 8 8 8 7 6 6 7 6 5 5 6 7 7 8 8 9 9 9 9 9 9 9 9 9 9 8 8 8 7
9 10 10 10 10 8 7 6 6 6 7 7 7 8 9 10 10 11 10 11 10 11 11 11 11 11 11 11 11 11 10 10
10 10 10 10 10 9 8 8 8 8 8 9 10 11 11 12 12 12 12 12 12 12 12 12 12 12 12 12 13 12 12 12
10 10 11 11 10 10 10 10 10 10 10 11 12 13 13 13 13 13 13 13 12 12 12 12 12 12 12 13 13 12 12 12
10 11 11 10 11 11 11 11 12 12 12 13 13 14 14 13 13 13 13 13 13 13 13 13 12 13 13 13 13 12 13 13
11 11 11 11 11 11 12 12 12 12 13 14 14 15 14 14 14 14 13 13 13 14 14 14 13 13 13 13 13 13 13 12
12 12 11 11 12 12 12 13 13 13 13 14 15 15 14 14 14 14 14 14 14 15 14 14 14 14 13 14 13 14 13 11
12 12 12 13 13 13 13 13 13 13 13 14 15 15 14 14 14 15 14 15 15 15 15 15 14 14 14 14 14 14 13 11
11 11 12 13 13 13 13 13 13 13 14 14 15 14 14 14 15 15 15 16 16 16 16 15 16 15 14 13 14 14 12 11
11 11 13 14 14 13 13 14 13 14 14 14 15 14 15 15 15 16 16 16 16 17 16 16 16 16 14 13 13 13 12 12
10 12 13 14 14 14 14 14 14 14 15 16 14 15 15 15 16 16 17 17 17 17 17 16 16 16 14 13 12 12 12 11